This is the latest recevied weather packets stored in our database for station/object KB3FCJ-2. If no packets are shown the sender has not sent any weather packets the latest 10 day(s).
| Time | Temp. | Humidity | Pressure | Rain* | Wind** | Luminosity | Snow |
|---|---|---|---|---|---|---|---|
| 1777735482 | 11.67° C | 56% | 628.4 hPa | 0 mm | - | - | - |
| 1777734882 | 11.11° C | 57% | 628.4 hPa | 0 mm | - | - | - |
| 1777734061 | 11.67° C | 61% | 628.4 hPa | 0 mm | - | - | - |
| 1777733461 | 11.11° C | 63% | 628.4 hPa | 0 mm | - | - | - |
| 1777732862 | 11.11° C | 66% | 628.4 hPa | 0 mm | - | - | - |
| 1777732261 | 10.56° C | 68% | 628.4 hPa | 0 mm | - | - | - |
| 1777731421 | 10° C | 70% | 628.4 hPa | 0 mm | - | - | - |
| 1777730220 | 10° C | 73% | 628.4 hPa | 0 mm | - | - | - |
| 1777729621 | 9.44° C | 75% | 628.4 hPa | 0 mm | - | - | - |
| 1777728779 | 9.44° C | 77% | 628.4 hPa | 0 mm | - | - | - |
| 1777728180 | 9.44° C | 77% | 628.4 hPa | 0 mm | - | - | - |
| 1777727580 | 8.89° C | 79% | 628.4 hPa | 0 mm | - | - | - |
| 1777726979 | 8.89° C | 79% | 628.4 hPa | 0 mm | - | - | - |
| 1777726141 | 8.33° C | 80% | 628.4 hPa | 0 mm | - | - | - |
| 1777725540 | 8.33° C | 80% | 628.4 hPa | 0 mm | - | - | - |
| 1777724941 | 7.78° C | 81% | 628.4 hPa | 0 mm | - | - | - |
| 1777724340 | 7.78° C | 80% | 628.4 hPa | 0 mm | - | - | - |
| 1777723498 | 8.33° C | 80% | 628.4 hPa | 0 mm | - | - | - |
| 1777722898 | 7.78° C | 80% | 628.4 hPa | 0 mm | - | - | - |
| 1777722297 | 8.33° C | 79% | 628.4 hPa | 0 mm | - | - | - |
| 1777721698 | 8.33° C | 81% | 628.4 hPa | 0 mm | - | - | - |
| 1777720861 | 8.33° C | 83% | 628.4 hPa | 0 mm | - | - | - |
| 1777720261 | 8.33° C | 83% | 628.4 hPa | 0 mm | - | - | - |
| 1777719661 | 8.33° C | 82% | 628.4 hPa | 0 mm | - | - | - |
| 1777719060 | 8.33° C | 82% | 628.4 hPa | 0 mm | - | - | - |
* Rain latest hour (hover to see other rain measurements)
** Current wind speed in m/s (hover to see current wind gust speed)